sat.trackr.live / text

‹ back to catalog

GOOD ANCESTOR KILAKILA

NORAD 64528 · 2025-135A

PAYLOAD ACTIVE UNKNOWN

§ Identity

Operator
Country
SLB
Launch date
2025-06-23
Launch site
AFWTR
Launch vehicle
Mass (kg)
RCS (m²)

External: N2YO · Heavens-Above · Gunter

§ Orbital elements

Epoch: 2026-09-21T20:15:31.157568Z

Period
94.40 min
Inclination
97.4708°
Eccentricity
0.0004444
Mean motion
15.25353771 rev/d
Perigee alt
486.7 km
Apogee alt
492.8 km
Semi-major
6,867.9 km
B*
2.2937e-4
RAAN
19.7652°
Arg perigee
189.0895°
Mean anomaly
171.0263°
Rev number
6,961

§ Raw data

GOOD ANCESTOR KILAKILA1 64528U 25135A   26264.84411062  .00005712  00000+0  22937-3 0  99972 64528  97.4708  19.7652 0004444 189.0895 171.0263 15.25353771 69619

JSON: /api/v1/satellites/64528 · /tle

For live sub-satellite position, see the globe view (requires WebGL).

§ Visibility from observer

Set your observer location to see the next 7 days of passes ≥ 10°. The values pass through the URL so the page stays shareable.

No JS? Fill the form by hand. The geolocation button needs JavaScript.